DLH2FT EDDF-EGCC

Flight info

Callsign DLH2FT
Flight time 1h 16m
Altitude 34000
Route OBOKA3W/25C OBOKA Z29 TORNU DCT BATAK DCT GALSO Q63 ERING L179 LAM UN57 WELIN T420 ELVOS
Aircraft A321/M-SDE3FGHIRWY/LB1

Departure

Time 2026-05-06 22:41
Airport Frankfurt Main Airport (EDDF)

Arrival

Time 2026-05-06 23:57
Airport Manchester Airport (EGCC)
Time Latitude Longitude Altitude Speed Heading
2026-05-06 22:20 50.04886 8.57444 338 ft 0 kts 218°
2026-05-06 22:35 50.04886 8.57445 356 ft 2 kts 218°
2026-05-06 22:35 50.04899 8.57460 365 ft 2 kts 218°
2026-05-06 22:36 50.04912 8.57476 361 ft 2 kts 218°
2026-05-06 22:36 50.04926 8.57491 363 ft 2 kts 188°
2026-05-06 22:36 50.04942 8.57489 362 ft 2 kts 141°
2026-05-06 22:36 50.04952 8.57474 361 ft 1 kts 116°
2026-05-06 22:37 50.04953 8.57471 361 ft 0 kts 114°
2026-05-06 22:38 50.04952 8.57474 356 ft 1 kts 114°
2026-05-06 22:38 50.04940 8.57513 360 ft 6 kts 114°
2026-05-06 22:38 50.04917 8.57592 359 ft 9 kts 115°
2026-05-06 22:39 50.04888 8.57692 363 ft 12 kts 115°
2026-05-06 22:39 50.04848 8.57833 359 ft 17 kts 113°
2026-05-06 22:39 50.04745 8.57938 362 ft 21 kts 160°
2026-05-06 22:39 50.04596 8.58022 360 ft 24 kts 160°
2026-05-06 22:40 50.04475 8.58089 365 ft 15 kts 159°
2026-05-06 22:40 50.04377 8.58101 371 ft 14 kts 220°
2026-05-06 22:40 50.04354 8.58029 366 ft 7 kts 248°
2026-05-06 22:40 50.04306 8.57836 364 ft 48 kts 249°
2026-05-06 22:41 50.03753 8.55532 366 ft 169 kts 249°
2026-05-06 22:41 50.03336 8.53796 998 ft 171 kts 250°
2026-05-06 22:41 50.02912 8.52053 1780 ft 171 kts 249°
2026-05-06 22:42 50.02388 8.50325 2101 ft 187 kts 232°
2026-05-06 22:42 50.01289 8.49144 2440 ft 201 kts 199°
2026-05-06 22:42 49.99925 8.48600 2972 ft 203 kts 196°
2026-05-06 22:42 49.98546 8.48057 3528 ft 204 kts 197°
2026-05-06 22:43 49.97164 8.47510 4091 ft 205 kts 197°
2026-05-06 22:43 49.95780 8.46955 4633 ft 208 kts 198°
2026-05-06 22:43 49.94325 8.46308 4789 ft 228 kts 199°
2026-05-06 22:43 49.92762 8.45553 5187 ft 239 kts 204°
2026-05-06 22:44 49.91358 8.44196 5843 ft 238 kts 225°
2026-05-06 22:44 49.90373 8.42190 6531 ft 238 kts 240°
2026-05-06 22:44 49.89525 8.39963 7198 ft 240 kts 239°
2026-05-06 22:44 49.88821 8.37602 7829 ft 244 kts 254°
2026-05-06 22:45 49.88599 8.34932 8192 ft 261 kts 272°
2026-05-06 22:45 49.88763 8.32062 8664 ft 270 kts 274°
2026-05-06 22:45 49.88939 8.29136 9285 ft 275 kts 276°
2026-05-06 22:45 49.89448 8.26255 9910 ft 281 kts 291°
2026-05-06 22:46 49.90067 8.24478 10299 ft 285 kts 302°
2026-05-06 22:46 49.91265 8.21898 10493 ft 305 kts 304°
2026-05-06 22:46 49.92563 8.19162 10635 ft 325 kts 304°
2026-05-06 22:46 49.93744 8.16746 10786 ft 339 kts 308°
2026-05-06 22:47 49.95150 8.14564 11147 ft 347 kts 317°
2026-05-06 22:47 49.96999 8.12129 11690 ft 350 kts 317°
2026-05-06 22:47 49.98859 8.09659 12253 ft 353 kts 317°
2026-05-06 22:47 50.00733 8.07162 12824 ft 356 kts 317°
2026-05-06 22:48 50.02619 8.04640 13390 ft 359 kts 317°
2026-05-06 22:48 50.04523 8.02085 13924 ft 363 kts 317°
2026-05-06 22:48 50.06440 7.99515 14417 ft 366 kts 317°
2026-05-06 22:48 50.08381 7.96913 14905 ft 369 kts 317°
2026-05-06 22:49 50.10333 7.94287 15394 ft 372 kts 317°
2026-05-06 22:49 50.12302 7.91630 15876 ft 375 kts 317°
2026-05-06 22:49 50.14258 7.88993 16359 ft 378 kts 317°
2026-05-06 22:49 50.16258 7.86293 16841 ft 381 kts 317°
2026-05-06 22:50 50.18272 7.83568 17311 ft 385 kts 317°
2026-05-06 22:50 50.20303 7.80817 17777 ft 388 kts 317°
2026-05-06 22:50 50.22355 7.78038 18238 ft 391 kts 317°
2026-05-06 22:50 50.24442 7.75276 18630 ft 395 kts 321°
2026-05-06 22:51 50.26769 7.72968 19019 ft 399 kts 332°
2026-05-06 22:51 50.29317 7.71176 19404 ft 402 kts 335°
2026-05-06 22:51 50.31896 7.69425 19808 ft 405 kts 335°
2026-05-06 22:51 50.34488 7.67656 20205 ft 407 kts 335°
2026-05-06 22:52 50.37088 7.65875 20613 ft 409 kts 335°
2026-05-06 22:52 50.39672 7.64106 20997 ft 412 kts 335°
2026-05-06 22:52 50.42299 7.62301 21391 ft 414 kts 335°
2026-05-06 22:52 50.44947 7.60476 21777 ft 416 kts 335°
2026-05-06 22:53 50.47603 7.58643 22153 ft 419 kts 335°
2026-05-06 22:53 50.50281 7.56788 22529 ft 421 kts 335°
2026-05-06 22:53 50.52969 7.54925 22903 ft 423 kts 335°
2026-05-06 22:53 50.55657 7.52982 23265 ft 426 kts 331°
2026-05-06 22:54 50.58189 7.50538 23603 ft 427 kts 326°
2026-05-06 22:54 50.60686 7.47977 23904 ft 430 kts 326°
2026-05-06 22:54 50.63172 7.45433 24201 ft 432 kts 326°
2026-05-06 22:54 50.65699 7.42847 24519 ft 435 kts 326°
2026-05-06 22:55 50.68242 7.40238 24821 ft 437 kts 326°
2026-05-06 22:55 50.70790 7.37594 25112 ft 439 kts 324°
2026-05-06 22:55 50.73041 7.34348 25379 ft 440 kts 308°
2026-05-06 22:55 50.74706 7.30277 25651 ft 441 kts 298°
2026-05-06 22:56 50.76191 7.26009 25942 ft 444 kts 297°
2026-05-06 22:56 50.77669 7.21703 26223 ft 446 kts 297°
2026-05-06 22:56 50.79124 7.17427 26492 ft 449 kts 297°
2026-05-06 22:56 50.80604 7.13065 26772 ft 451 kts 297°
2026-05-06 22:57 50.82089 7.08689 27052 ft 453 kts 297°
2026-05-06 22:57 50.83586 7.04291 27324 ft 455 kts 297°
2026-05-06 22:57 50.85098 6.99857 27595 ft 458 kts 297°
2026-05-06 22:57 50.86617 6.95402 27862 ft 460 kts 297°
2026-05-06 22:58 50.88139 6.90926 28131 ft 463 kts 297°
2026-05-06 22:58 50.89664 6.86432 28386 ft 465 kts 297°
2026-05-06 22:58 50.91195 6.81907 28645 ft 467 kts 297°
2026-05-06 22:58 50.92732 6.77354 28905 ft 469 kts 297°
2026-05-06 22:59 50.94275 6.72777 29145 ft 471 kts 297°
2026-05-06 22:59 50.95804 6.68234 29366 ft 474 kts 297°
2026-05-06 22:59 50.97358 6.63614 29600 ft 475 kts 297°
2026-05-06 22:59 50.98917 6.58968 29818 ft 477 kts 297°
2026-05-06 23:00 51.00479 6.54299 30023 ft 479 kts 297°
2026-05-06 23:00 51.02040 6.49626 30271 ft 479 kts 297°
2026-05-06 23:00 51.03601 6.44953 30537 ft 478 kts 297°
2026-05-06 23:00 51.05160 6.40285 30805 ft 477 kts 297°
2026-05-06 23:01 51.06712 6.35623 31059 ft 477 kts 296°
2026-05-06 23:01 51.08249 6.30963 31323 ft 476 kts 296°
2026-05-06 23:01 51.09785 6.26299 31599 ft 476 kts 296°
2026-05-06 23:01 51.11323 6.21638 31860 ft 475 kts 296°
2026-05-06 23:02 51.12862 6.16988 32133 ft 474 kts 296°
2026-05-06 23:02 51.14400 6.12350 32390 ft 474 kts 296°
2026-05-06 23:02 51.15944 6.07708 32667 ft 473 kts 296°
2026-05-06 23:02 51.17488 6.03081 32938 ft 472 kts 296°
2026-05-06 23:03 51.19015 5.98519 33210 ft 471 kts 296°
2026-05-06 23:03 51.20561 5.93904 33497 ft 471 kts 296°
2026-05-06 23:03 51.22106 5.89307 33771 ft 470 kts 296°
2026-05-06 23:03 51.23653 5.84713 33943 ft 471 kts 296°
2026-05-06 23:04 51.25206 5.80103 33972 ft 473 kts 296°
2026-05-06 23:04 51.28320 5.70850 33975 ft 473 kts 296°
2026-05-06 23:05 51.31437 5.61581 33977 ft 472 kts 296°
2026-05-06 23:05 51.34524 5.52388 33974 ft 471 kts 296°
2026-05-06 23:06 51.37630 5.43136 33982 ft 471 kts 296°
2026-05-06 23:06 51.40730 5.33890 33990 ft 471 kts 296°
2026-05-06 23:07 51.43830 5.24638 33996 ft 471 kts 296°
2026-05-06 23:07 51.46930 5.15374 34001 ft 471 kts 296°
2026-05-06 23:08 51.50008 5.06174 34008 ft 470 kts 296°
2026-05-06 23:08 51.52265 4.96485 34013 ft 459 kts 272°
2026-05-06 23:09 51.52769 4.86299 34015 ft 456 kts 271°
2026-05-06 23:09 51.53214 4.76093 33972 ft 462 kts 271°
2026-05-06 23:10 51.53659 4.65758 33979 ft 470 kts 271°
2026-05-06 23:10 51.54120 4.55254 33977 ft 472 kts 271°
2026-05-06 23:11 51.54574 4.44749 33980 ft 471 kts 271°
2026-05-06 23:11 51.54995 4.34265 33976 ft 469 kts 271°
2026-05-06 23:12 51.55411 4.23806 33988 ft 469 kts 271°
2026-05-06 23:12 51.55829 4.13333 34002 ft 469 kts 271°
2026-05-06 23:13 51.56237 4.02870 34012 ft 469 kts 271°
2026-05-06 23:13 51.56633 3.92415 34016 ft 468 kts 271°
2026-05-06 23:14 51.57012 3.82044 34029 ft 468 kts 271°
2026-05-06 23:14 51.57384 3.71609 34026 ft 467 kts 271°
2026-05-06 23:15 51.57747 3.61187 34025 ft 466 kts 271°
2026-05-06 23:15 51.58106 3.50786 34025 ft 465 kts 271°
2026-05-06 23:16 51.58453 3.40397 34031 ft 465 kts 270°
2026-05-06 23:16 51.58787 3.30001 34037 ft 464 kts 270°
2026-05-06 23:17 51.59107 3.19711 34038 ft 463 kts 270°
2026-05-06 23:17 51.59428 3.09361 34040 ft 463 kts 270°
2026-05-06 23:18 51.59737 2.99023 34047 ft 462 kts 270°
2026-05-06 23:18 51.60030 2.88687 34043 ft 462 kts 270°
2026-05-06 23:19 51.60317 2.78376 34048 ft 461 kts 270°
2026-05-06 23:19 51.60603 2.68074 34044 ft 461 kts 270°
2026-05-06 23:20 51.60875 2.57781 34049 ft 460 kts 270°
2026-05-06 23:20 51.61130 2.47500 34047 ft 460 kts 270°
2026-05-06 23:21 51.61381 2.37220 34054 ft 459 kts 270°
2026-05-06 23:21 51.61621 2.26956 34053 ft 458 kts 270°
2026-05-06 23:22 51.61855 2.16702 34056 ft 458 kts 270°
2026-05-06 23:22 51.62076 2.06516 34059 ft 458 kts 270°
2026-05-06 23:23 51.62288 1.96284 34058 ft 457 kts 270°
2026-05-06 23:23 51.62499 1.86045 34057 ft 457 kts 270°
2026-05-06 23:24 51.62697 1.75874 34065 ft 457 kts 270°
2026-05-06 23:24 51.62883 1.65591 34062 ft 456 kts 270°
2026-05-06 23:25 51.63060 1.55450 34067 ft 456 kts 270°
2026-05-06 23:25 51.63226 1.45244 34061 ft 456 kts 269°
2026-05-06 23:26 51.63381 1.35046 34064 ft 455 kts 269°
2026-05-06 23:26 51.63525 1.24844 34058 ft 455 kts 270°
2026-05-06 23:27 51.63675 1.14646 34057 ft 455 kts 270°
2026-05-06 23:27 51.63809 1.04458 34067 ft 455 kts 269°
2026-05-06 23:28 51.63934 0.94266 34078 ft 455 kts 269°
2026-05-06 23:28 51.64052 0.84144 34078 ft 455 kts 269°
2026-05-06 23:29 51.64164 0.73955 34084 ft 455 kts 269°
2026-05-06 23:29 51.64267 0.63761 34081 ft 455 kts 269°
2026-05-06 23:30 51.64359 0.53571 34082 ft 454 kts 269°
2026-05-06 23:30 51.64438 0.43450 34072 ft 454 kts 269°
2026-05-06 23:31 51.64493 0.34913 34076 ft 454 kts 269°
2026-05-06 23:31 51.64581 0.24814 34073 ft 454 kts 273°
2026-05-06 23:32 51.66132 0.14971 34073 ft 457 kts 294°
2026-05-06 23:32 51.69812 0.06620 34076 ft 461 kts 313°
2026-05-06 23:33 51.74328 -0.00751 34155 ft 461 kts 313°
2026-05-06 23:33 51.78751 -0.08042 34067 ft 451 kts 313°
2026-05-06 23:34 51.83134 -0.15312 34047 ft 451 kts 313°
2026-05-06 23:34 51.87492 -0.22550 34056 ft 452 kts 313°
2026-05-06 23:35 51.91884 -0.29854 34059 ft 453 kts 314°
2026-05-06 23:35 51.96285 -0.37204 34065 ft 454 kts 314°
2026-05-06 23:36 52.00688 -0.44564 34070 ft 454 kts 314°
2026-05-06 23:36 52.05097 -0.51960 34074 ft 455 kts 314°
2026-05-06 23:37 52.09458 -0.59317 34079 ft 455 kts 314°
2026-05-06 23:37 52.13848 -0.66734 34081 ft 455 kts 314°
2026-05-06 23:38 52.18242 -0.74172 34093 ft 455 kts 314°
2026-05-06 23:38 52.22630 -0.81634 34083 ft 455 kts 314°
2026-05-06 23:39 52.27557 -0.88046 34099 ft 454 kts 329°
2026-05-06 23:39 52.32955 -0.93402 34100 ft 454 kts 329°
2026-05-06 23:40 52.38340 -0.98767 34061 ft 447 kts 329°
2026-05-06 23:40 52.40929 -1.01357 33956 ft 437 kts 329°
2026-05-06 23:40 52.43506 -1.03936 33657 ft 430 kts 329°
2026-05-06 23:40 52.46047 -1.06483 33273 ft 427 kts 329°
2026-05-06 23:41 52.48574 -1.09018 32714 ft 424 kts 329°
2026-05-06 23:41 52.51087 -1.11540 32187 ft 421 kts 329°
2026-05-06 23:41 52.53578 -1.14044 31649 ft 418 kts 329°
2026-05-06 23:41 52.56056 -1.16538 31128 ft 415 kts 329°
2026-05-06 23:42 52.58505 -1.19008 30616 ft 411 kts 329°
2026-05-06 23:42 52.60934 -1.21466 30115 ft 408 kts 329°
2026-05-06 23:42 52.63306 -1.23872 29547 ft 404 kts 329°
2026-05-06 23:42 52.65692 -1.26294 28971 ft 401 kts 329°
2026-05-06 23:43 52.68087 -1.28723 28417 ft 397 kts 329°
2026-05-06 23:43 52.70400 -1.31071 27869 ft 394 kts 329°
2026-05-06 23:43 52.72728 -1.33434 27328 ft 391 kts 329°
2026-05-06 23:43 52.75037 -1.35780 26884 ft 388 kts 329°
2026-05-06 23:44 52.77328 -1.38112 26371 ft 385 kts 328°
2026-05-06 23:44 52.79604 -1.40436 25866 ft 382 kts 328°
2026-05-06 23:44 52.81865 -1.42747 25366 ft 380 kts 328°
2026-05-06 23:44 52.84108 -1.45043 24875 ft 378 kts 328°
2026-05-06 23:45 52.86335 -1.47329 24393 ft 375 kts 328°
2026-05-06 23:45 52.88550 -1.49605 23916 ft 373 kts 328°
2026-05-06 23:45 52.90746 -1.51864 23422 ft 371 kts 327°
2026-05-06 23:45 52.92929 -1.54115 22857 ft 368 kts 327°
2026-05-06 23:46 52.95102 -1.56353 22317 ft 366 kts 327°
2026-05-06 23:46 52.97261 -1.58576 21767 ft 364 kts 327°
2026-05-06 23:46 52.99376 -1.60759 21251 ft 361 kts 327°
2026-05-06 23:46 53.01503 -1.62957 20741 ft 359 kts 327°
2026-05-06 23:47 53.03623 -1.65151 20230 ft 356 kts 327°
2026-05-06 23:47 53.05605 -1.67560 19733 ft 352 kts 316°
2026-05-06 23:47 53.07263 -1.70550 18950 ft 350 kts 310°
2026-05-06 23:47 53.08868 -1.73654 17407 ft 359 kts 309°
2026-05-06 23:48 53.10469 -1.76774 16648 ft 344 kts 309°
2026-05-06 23:48 53.11962 -1.79688 16334 ft 320 kts 309°
2026-05-06 23:48 53.13384 -1.82456 15715 ft 313 kts 309°
2026-05-06 23:48 53.14785 -1.85188 15330 ft 308 kts 309°
2026-05-06 23:49 53.16167 -1.87880 14818 ft 304 kts 309°
2026-05-06 23:49 53.17523 -1.90519 14308 ft 302 kts 309°
2026-05-06 23:49 53.18871 -1.93151 13563 ft 296 kts 309°
2026-05-06 23:49 53.20203 -1.95750 12703 ft 293 kts 309°
2026-05-06 23:50 53.21504 -1.98291 12211 ft 280 kts 309°
2026-05-06 23:50 53.23498 -2.03458 11030 ft 259 kts 285°
2026-05-06 23:50 53.23747 -2.06413 10307 ft 257 kts 269°
2026-05-06 23:51 53.23642 -2.09385 9545 ft 255 kts 266°
2026-05-06 23:51 53.23530 -2.12334 8788 ft 253 kts 267°
2026-05-06 23:51 53.23424 -2.15239 8079 ft 249 kts 267°
2026-05-06 23:51 53.23319 -2.18104 7387 ft 246 kts 267°
2026-05-06 23:52 53.23216 -2.20931 6711 ft 242 kts 267°
2026-05-06 23:52 53.23112 -2.23722 6024 ft 239 kts 267°
2026-05-06 23:52 53.23008 -2.26484 5518 ft 237 kts 266°
2026-05-06 23:52 53.22905 -2.29232 5251 ft 237 kts 266°
2026-05-06 23:53 53.22803 -2.31949 4978 ft 238 kts 266°
2026-05-06 23:53 53.22701 -2.34697 4676 ft 237 kts 266°
2026-05-06 23:53 53.22597 -2.37434 4387 ft 233 kts 265°
2026-05-06 23:53 53.22495 -2.40084 4110 ft 225 kts 265°
2026-05-06 23:54 53.22622 -2.42637 3834 ft 220 kts 290°
2026-05-06 23:54 53.23537 -2.44623 3578 ft 219 kts 324°
2026-05-06 23:54 53.24938 -2.45427 3245 ft 214 kts 357°
2026-05-06 23:54 53.26368 -2.44800 2652 ft 216 kts 35°
2026-05-06 23:55 53.27411 -2.43046 2184 ft 210 kts 53°
2026-05-06 23:55 53.28292 -2.41204 1848 ft 194 kts 55°
2026-05-06 23:55 53.29108 -2.39509 1561 ft 180 kts 54°
2026-05-06 23:55 53.29872 -2.37929 1319 ft 169 kts 54°
2026-05-06 23:56 53.30584 -2.36462 1083 ft 155 kts 53°
2026-05-06 23:56 53.31236 -2.35117 856 ft 147 kts 52°
2026-05-06 23:56 53.31877 -2.33795 650 ft 145 kts 52°
2026-05-06 23:56 53.32507 -2.32487 460 ft 144 kts 51°
2026-05-06 23:57 53.33135 -2.31192 288 ft 143 kts 50°
2026-05-06 23:57 53.33733 -2.29966 235 ft 118 kts 51°
2026-05-06 23:57 53.34140 -2.29129 234 ft 68 kts 50°
2026-05-06 23:57 53.34337 -2.28728 230 ft 29 kts 47°
2026-05-06 23:58 53.34503 -2.28544 233 ft 28 kts 21°
2026-05-06 23:58 53.34685 -2.28420 234 ft 28 kts 26°
2026-05-06 23:58 53.34811 -2.28197 233 ft 27 kts 51°
2026-05-06 23:58 53.34920 -2.27977 233 ft 18 kts 36°
2026-05-06 23:59 53.34987 -2.28005 233 ft 9 kts 321°
2026-05-06 23:59 53.35042 -2.28078 232 ft 11 kts 321°
2026-05-06 23:59 53.35107 -2.28167 232 ft 13 kts 321°
2026-05-06 23:59 53.35192 -2.28200 232 ft 13 kts
2026-05-07 00:00 53.35289 -2.28182 233 ft 15 kts
2026-05-07 00:00 53.35392 -2.28165 233 ft 16 kts
2026-05-07 00:00 53.35502 -2.28116 233 ft 17 kts 27°
2026-05-07 00:00 53.35563 -2.28028 233 ft 18 kts 50°
2026-05-07 00:01 53.35671 -2.27806 236 ft 19 kts 51°
2026-05-07 00:01 53.35767 -2.27671 233 ft 17 kts
2026-05-07 00:01 53.35890 -2.27644 233 ft 18 kts
2026-05-07 00:01 53.35978 -2.27617 233 ft 8 kts 46°
2026-05-07 00:02 53.35982 -2.27525 233 ft 4 kts 96°
2026-05-07 00:02 53.35981 -2.27523 233 ft 0 kts 96°